FW6934 Weather Reports


time (UTC)temp
C
wind
direction
speed
KPH
gust
KPH
rain 1hr
cm
rain 24hr
cm
rain mn
cm
humidity
%
barometer
mb
20260509215526 23 74 6.4 12.9 0.00 0.00 0.00 45 1005.0
20260509215033 23 281 3.2 12.9 0.00 0.00 0.00 44 1005.1
20260509214559 23 54 4.8 11.3 0.00 0.00 0.00 47 1005.1
20260509214012 23 174 4.8 9.7 0.00 0.00 0.00 47 1005.1
20260509213519 23 44 4.8 11.3 0.00 0.00 0.00 48 1005.2
20260509213043 23 62 3.2 11.3 0.00 0.00 0.00 48 1005.1
20260509212550 23 239 1.6 8.0 0.00 0.00 0.00 47 1005.2
20260509212059 22 22 3.2 8.0 0.00 0.00 0.00 47 1005.3
20260509211533 22 51 3.2 12.9 0.00 0.00 0.00 49 1005.5
20260509211041 22 347 3.2 12.9 0.00 0.00 0.00 49 1005.6
20260509210553 22 302 3.2 9.7 0.00 0.00 0.00 48 1005.5
20260509210023 22 335 4.8 9.7 0.00 0.00 0.00 50 1005.7
20260509205529 22 28 4.8 9.7 0.00 0.00 0.00 49 1005.7
20260509205037 22 192 3.2 11.3 0.00 0.00 0.00 52 1005.6
20260509204505 22 240 4.8 11.3 0.00 0.00 0.00 54 1005.6
20260509204011 21 269 1.6 8.0 0.00 0.00 0.00 55 1005.6
20260509203519 21 316 1.6 8.0 0.00 0.00 0.00 53 1005.8
20260509203104 22 67 3.2 12.9 0.00 0.00 0.00 53 1005.9
20260509202601 22 5 3.2 14.5 0.00 0.00 0.00 52 1005.9
20260509202010 22 26 8.0 14.5 0.00 0.00 0.00 56 1006.1
20260509201553 22 17 6.4 12.9 0.00 0.00 0.00 54 1006.0
20260509201046 22 81 4.8 12.9 0.00 0.00 0.00 54 1006.2
20260509200553 21 339 4.8 12.9 0.00 0.00 0.00 57 1006.2
20260509200024 21 49 4.8 16.1 0.00 0.00 0.00 56 1006.3
20260509195530 21 19 6.4 14.5 0.00 0.00 0.00 56 1006.4
20260509195028 21 341 4.8 12.9 0.00 0.00 0.00 56 1006.3
20260509194555 21 347 6.4 17.7 0.00 0.00 0.00 57 1006.6
20260509194103 21 280 3.2 12.9 0.00 0.00 0.00 59 1006.6
20260509193508 20 5 3.2 14.5 0.00 0.00 0.00 59 1006.7
20260509193059 20 50 6.4 14.5 0.00 0.00 0.00 59 1006.6
20260509192548 20 338 4.8 14.5 0.00 0.00 0.00 61 1006.7
20260509192053 20 349 6.4 14.5 0.00 0.00 0.00 61 1006.7
20260509191527 20 290 3.2 14.5 0.00 0.00 0.00 61 1006.7
20260509191035 20 256 8.0 14.5 0.00 0.00 0.00 61 1006.7
20260509190541 20 30 6.4 12.9 0.00 0.00 0.00 61 1006.9
20260509190003 20 36 4.8 9.7 0.00 0.00 0.00 63 1007.0
20260509185509 19 340 4.8 12.9 0.00 0.00 0.00 62 1007.1
20260509185014 19 305 6.4 12.9 0.00 0.00 0.00 63 1007.1
20260509184600 19 40 3.2 9.7 0.00 0.00 0.00 64 1007.2
20260509184054 18 61 1.6 9.7 0.00 0.00 0.00 68 1007.3
20260509183559 18 44 6.4 9.7 0.00 0.00 0.00 65 1007.3
20260509183036 18 54 4.8 9.7 0.00 0.00 0.00 65 1007.4
20260509182539 18 21 0.0 16.1 0.00 0.00 0.00 67 1007.3
20260509182046 18 306 6.4 16.1 0.00 0.00 0.00 67 1007.5
20260509181511 18 355 3.2 8.0 0.00 0.00 0.00 68 1007.5
20260509181031 17 35 3.2 8.0 0.00 0.00 0.00 68 1007.5
20260509180531 17 92 3.2 11.3 0.00 0.00 0.00 69 1007.5
20260509180056 17 340 6.4 11.3 0.00 0.00 0.00 71 1007.6
20260509175503 17 46 3.2 8.0 0.00 0.00 0.00 69 1007.5
20260509175019 17 5 4.8 9.7 0.00 0.00 0.00 72 1007.6
20260509174549 16 304 3.2 9.7 0.00 0.00 0.00 72 1007.6
20260509174054 16 86 3.2 9.7 0.00 0.00 0.00 73 1007.6
20260509173600 16 55 3.2 11.3 0.00 0.00 0.00 71 1007.6
20260509173042 16 56 4.8 11.3 0.00 0.00 0.00 72 1007.7
20260509172541 16 61 1.6 9.7 0.00 0.00 0.00 72 1007.7
20260509172047 16 31 3.2 8.0 0.00 0.00 0.00 74 1007.8
20260509171535 16 32 3.2 8.0 0.00 0.00 0.00 74 1007.8
20260509171028 16 311 4.8 8.0 0.00 0.00 0.00 73 1008.0
20260509170535 16 5 3.2 9.7 0.00 0.00 0.00 75 1008.1
20260509165504 15 111 3.2 8.0 0.00 0.00 0.00 73 1008.2
20260509165021 15 44 4.8 8.0 0.00 0.00 0.00 74 1008.2
20260509164548 15 35 1.6 8.0 0.00 0.00 0.00 74 1008.2
20260509164057 15 355 1.6 8.0 0.00 0.00 0.00 74 1008.2
20260509163605 15 40 4.8 6.4 0.00 0.00 0.00 77 1008.3
20260509163038 14 13 0.0 6.4 0.00 0.00 0.00 76 1008.6
20260509162546 15 49 3.2 12.9 0.00 0.00 0.00 76 1008.5
20260509162053 15 51 6.4 12.9 0.00 0.00 0.00 78 1008.6
20260509161530 15 55 3.2 8.0 0.00 0.00 0.00 77 1008.7
20260509161033 14 71 3.2 8.0 0.00 0.00 0.00 79 1008.7
20260509160538 14 294 3.2 8.0 0.00 0.00 0.00 77 1008.8
20260509160019 13 49 4.8 8.0 0.00 0.00 0.00 77 1008.8
20260509155520 13 36 3.2 6.4 0.00 0.00 0.00 76 1008.8
20260509155024 13 295 3.2 8.0 0.00 0.00 0.00 77 1008.9
20260509154552 13 304 1.6 8.0 0.00 0.00 0.00 78 1008.9
20260509154059 13 38 0.0 8.0 0.00 0.00 0.00 78 1008.9
20260509153603 13 40 1.6 6.4 0.00 0.00 0.00 79 1008.8
20260509153037 13 9 1.6 8.0 0.00 0.00 0.00 79 1008.9
20260509152543 13 288 1.6 6.4 0.00 0.00 0.00 80 1008.8
20260509152042 12 311 1.6 6.4 0.00 0.00 0.00 83 1008.9
20260509151504 12 32 1.6 6.4 0.00 0.00 0.00 86 1008.9
20260509151018 12 349 0.0 1.6 0.00 0.00 0.00 87 1009.0
20260509150526 12 347 0.0 4.8 0.00 0.00 0.00 88 1008.9
20260509150106 11 306 0.0 4.8 0.00 0.00 0.00 89 1008.9
20260509145600 11 311 1.6 4.8 0.00 0.00 0.00 89 1009.0
20260509145005 11 310 1.6 4.8 0.00 0.00 0.00 89 1009.1
20260509144625 11 310 0.0 1.6 0.00 0.00 0.00 89 1009.1
20260509144051 11 296 0.0 0.0 0.00 0.00 0.00 90 1009.1
20260509143555 10 246 0.0 0.0 0.00 0.00 0.00 90 1009.0
20260509143029 10 245 0.0 0.0 0.00 0.00 0.00 90 1009.0
20260509142538 10 245 0.0 0.0 0.00 0.00 0.00 90 1008.9
20260509142040 10 245 0.0 0.0 0.00 0.00 0.00 90 1008.8
20260509141519 9 245 0.0 0.0 0.00 0.00 0.00 89 1008.8
20260509141015 9 245 0.0 0.0 0.00 0.00 0.00 89 1008.8
20260509140518 9 245 0.0 0.0 0.00 0.00 0.00 89 1008.8
20260509140057 9 245 0.0 0.0 0.00 0.00 0.00 89 1008.9
20260509135600 9 245 0.0 0.0 0.00 0.00 0.00 89 1008.8
20260509135005 8 245 0.0 0.0 0.00 0.00 0.00 89 1008.8
20260509134534 8 245 0.0 0.0 0.00 0.00 0.00 89 1008.7
20260509134040 8 245 0.0 0.0 0.00 0.00 0.00 89 1008.7
20260509133544 8 245 0.0 0.0 0.00 0.00 0.00 88 1008.8
20260509133017 8 245 0.0 0.0 0.00 0.00 0.00 88 1008.7
20260509132519 8 245 0.0 0.0 0.00 0.00 0.00 88 1008.6
20260509132024 8 245 0.0 0.0 0.00 0.00 0.00 88 1008.6
20260509131553 8 245 0.0 0.0 0.00 0.00 0.00 88 1008.6
20260509131048 8 245 0.0 0.0 0.00 0.00 0.00 88 1008.6
20260509130559 8 245 0.0 0.0 0.00 0.00 0.00 88 1008.7
20260509130030 8 245 0.0 0.0 0.00 0.00 0.00 88 1008.7
20260509125533 8 245 0.0 0.0 0.00 0.00 0.00 88 1008.6
20260509125042 8 245 0.0 0.0 0.00 0.00 0.00 88 1008.7
20260509124522 8 245 0.0 0.0 0.00 0.00 0.00 88 1008.7
20260509124026 8 245 0.0 0.0 0.00 0.00 0.00 88 1008.6
20260509123530 8 245 0.0 0.0 0.00 0.00 0.00 88 1008.7
20260509123059 8 245 0.0 0.0 0.00 0.00 0.00 88 1008.7
20260509122600 8 245 0.0 0.0 0.00 0.00 0.00 88 1008.8
20260509122100 8 245 0.0 0.0 0.00 0.00 0.00 88 1008.9
20260509122003 8 245 0.0 0.0 0.00 0.00 0.00 87 1008.9
20260509121544 8 245 0.0 0.0 0.00 0.00 0.00 87 1008.9
20260509121048 8 245 0.0 0.0 0.00 0.00 0.00 87 1008.9
20260509120555 8 245 0.0 0.0 0.00 0.00 0.00 87 1009.0
20260509120026 8 245 0.0 0.0 0.00 0.00 0.00 87 1009.0
20260509115534 8 245 0.0 0.0 0.00 0.00 0.00 87 1009.0
20260509115042 8 245 0.0 0.0 0.00 0.00 0.00 87 1009.0
20260509114515 8 245 0.0 0.0 0.00 0.00 0.00 87 1008.9
20260509114021 8 245 0.0 0.0 0.00 0.00 0.00 87 1009.0
20260509113535 8 245 0.0 0.0 0.00 0.00 0.00 87 1009.1
20260509113046 8 245 0.0 0.0 0.00 0.00 0.00 87 1009.0
20260509112551 9 245 0.0 0.0 0.00 0.00 0.00 87 1009.1
20260509112103 9 245 0.0 0.0 0.00 0.00 0.00 87 1009.0
20260509111535 9 245 0.0 0.0 0.00 0.00 0.00 87 1009.2
20260509111036 9 245 0.0 0.0 0.00 0.00 0.00 87 1009.3
20260509110540 9 245 0.0 0.0 0.00 0.00 0.00 86 1009.3
20260509110007 9 245 0.0 0.0 0.00 0.00 0.00 86 1009.3
20260509105518 9 245 0.0 0.0 0.00 0.00 0.00 86 1009.4
20260509105024 9 245 0.0 0.0 0.00 0.00 0.00 86 1009.4
20260509104554 9 245 0.0 0.0 0.00 0.00 0.00 86 1009.6
20260509104056 9 245 0.0 0.0 0.00 0.00 0.00 86 1009.6
20260509103557 9 245 0.0 0.0 0.00 0.00 0.00 86 1009.6
20260509103034 9 245 0.0 0.0 0.00 0.00 0.00 86 1009.7
20260509102541 9 245 0.0 0.0 0.00 0.00 0.00 86 1009.6
20260509102043 10 245 0.0 0.0 0.00 0.00 0.00 86 1009.7
20260509101519 10 245 0.0 0.0 0.00 0.00 0.00 86 1009.6
20260509101023 10 245 0.0 0.0 0.00 0.00 0.00 86 1009.6
20260509100530 10 245 0.0 0.0 0.00 0.00 0.00 86 1009.7
20260509100104 10 245 0.0 0.0 0.00 0.00 0.00 86 1009.8
20260509095502 10 245 0.0 0.0 0.00 0.00 0.00 86 1009.7
20260509095008 10 245 0.0 0.0 0.00 0.00 0.00 85 1009.7
20260509094549 10 245 0.0 0.0 0.00 0.00 0.00 85 1009.7
20260509094049 10 245 0.0 0.0 0.00 0.00 0.00 85 1009.6
20260509093555 10 245 0.0 0.0 0.00 0.00 0.00 85 1009.7
20260509093024 10 245 0.0 0.0 0.00 0.00 0.00 85 1009.7
20260509092527 10 245 0.0 0.0 0.00 0.00 0.00 85 1009.8
20260509092033 10 245 0.0 0.0 0.00 0.00 0.00 85 1009.8
20260509091602 10 245 0.0 0.0 0.00 0.00 0.00 85 1009.9
20260509091006 10 245 0.0 0.0 0.00 0.00 0.00 84 1009.9
20260509090512 10 245 0.0 0.0 0.00 0.00 0.00 84 1010.0
20260509090048 10 245 0.0 0.0 0.00 0.00 0.00 84 1009.7
20260509085545 10 245 0.0 0.0 0.00 0.00 0.00 84 1009.9
20260509085051 10 245 0.0 0.0 0.00 0.00 0.00 83 1009.8
20260509084531 10 245 0.0 0.0 0.00 0.00 0.00 83 1009.9
20260509084030 10 245 0.0 0.0 0.00 0.00 0.00 83 1010.1
20260509083536 11 245 0.0 0.0 0.00 0.00 0.00 83 1010.0
20260509083001 11 245 0.0 0.0 0.00 0.00 0.00 83 1010.0
20260509082518 11 245 0.0 0.0 0.00 0.00 0.00 83 1010.1
20260509082004 11 245 0.0 0.0 0.00 0.00 0.00 82 1010.2
20260509081547 11 245 0.0 0.0 0.00 0.00 0.00 83 1010.2
20260509081052 11 245 0.0 0.0 0.00 0.00 0.00 82 1010.3
20260509080549 11 245 0.0 0.0 0.00 0.00 0.00 82 1010.2
20260509080022 11 245 0.0 0.0 0.00 0.00 0.00 82 1010.3
20260509075527 11 245 0.0 0.0 0.00 0.00 0.00 82 1010.3
20260509075030 11 245 0.0 0.0 0.00 0.00 0.00 82 1010.4
20260509074600 11 245 0.0 0.0 0.00 0.00 0.00 81 1010.3
20260509074001 11 245 0.0 6.4 0.00 0.00 0.00 81 1010.4
20260509073517 11 243 0.0 6.4 0.00 0.00 0.00 81 1010.4
20260509073041 11 263 0.0 0.0 0.00 0.00 0.00 81 1010.4
20260509072548 11 248 0.0 0.0 0.00 0.00 0.00 81 1010.4
20260509072054 11 248 0.0 3.2 0.00 0.00 0.00 80 1010.4
20260509071523 12 248 0.0 4.8 0.00 0.00 0.00 80 1010.4
20260509071031 12 248 1.6 6.4 0.00 0.00 0.00 80 1010.5
20260509070537 12 255 3.2 6.4 0.00 0.00 0.00 80 1010.4
20260509070104 12 264 1.6 4.8 0.00 0.00 0.00 80 1010.4
20260509065515 12 11 0.0 4.8 0.00 0.00 0.00 80 1010.4
20260509065020 12 11 0.0 4.8 0.00 0.00 0.00 79 1010.5
20260509064558 12 11 0.0 3.2 0.00 0.00 0.00 79 1010.4
20260509064049 12 11 1.6 3.2 0.00 0.00 0.00 78 1010.4
20260509063558 12 11 1.6 3.2 0.00 0.00 0.00 78 1010.4
20260509063040 12 11 0.0 4.8 0.00 0.00 0.00 78 1010.4
20260509062546 12 11 1.6 4.8 0.00 0.00 0.00 77 1010.4
20260509062055 13 11 1.6 4.8 0.00 0.00 0.00 76 1010.3
20260509061506 13 11 1.6 3.2 0.00 0.00 0.00 76 1010.3
20260509061016 13 11 1.6 3.2 0.00 0.00 0.00 76 1010.4
20260509060511 13 11 0.0 3.2 0.00 0.00 0.00 76 1010.3
20260509055554 13 11 0.0 3.2 0.00 0.00 0.00 75 1010.3
20260509055055 13 11 0.0 0.0 0.00 0.00 0.00 74 1010.3
20260509054532 13 11 0.0 0.0 0.00 0.00 0.00 74 1010.4
20260509054045 14 11 0.0 0.0 0.00 0.00 0.00 74 1010.4
20260509053545 14 11 0.0 0.0 0.00 0.00 0.00 73 1010.4
20260509053026 14 11 0.0 0.0 0.00 0.00 0.00 72 1010.3
20260509052526 14 11 0.0 0.0 0.00 0.00 0.00 72 1010.3
20260509052033 14 11 0.0 0.0 0.00 0.00 0.00 72 1010.2
20260509051540 15 11 0.0 3.2 0.00 0.00 0.00 71 1010.1
20260509051050 15 11 0.0 4.8 0.00 0.00 0.00 71 1010.2
20260509050556 15 11 1.6 4.8 0.00 0.00 0.00 71 1010.1
20260509050046 15 292 0.0 0.0 0.00 0.00 0.00 70 1010.1
20260509045540 15 292 0.0 0.0 0.00 0.00 0.00 70 1010.0
20260509045048 15 292 0.0 0.0 0.00 0.00 0.00 70 1010.0
20260509044532 15 292 0.0 1.6 0.00 0.00 0.00 69 1010.0
20260509044023 15 292 0.0 1.6 0.00 0.00 0.00 69 1009.9
20260509043529 15 292 0.0 0.0 0.00 0.00 0.00 69 1009.8
20260509043107 15 292 0.0 0.0 0.00 0.00 0.00 69 1009.7
20260509042555 15 292 0.0 0.0 0.00 0.00 0.00 69 1009.7
20260509042105 16 292 0.0 0.0 0.00 0.00 0.00 69 1009.7
20260509041538 16 292 0.0 0.0 0.00 0.00 0.00 68 1009.7
20260509041048 16 292 0.0 1.6 0.00 0.00 0.00 67 1009.6
20260509040548 16 292 0.0 4.8 0.00 0.00 0.00 66 1009.6
20260509040026 16 292 1.6 4.8 0.00 0.00 0.00 66 1009.4
20260509035534 16 291 0.0 3.2 0.00 0.00 0.00 66 1009.4
20260509035034 16 291 0.0 3.2 0.00 0.00 0.00 65 1009.4
20260509034548 16 291 0.0 4.8 0.00 0.00 0.00 65 1009.4
20260509034044 17 291 1.6 8.0 0.00 0.00 0.00 64 1009.4
20260509033554 17 306 3.2 8.0 0.00 0.00 0.00 64 1009.3
20260509033031 17 294 0.0 4.8 0.00 0.00 0.00 65 1009.2
20260509032541 17 288 1.6 6.4 0.00 0.00 0.00 64 1009.2
20260509032051 17 263 3.2 9.7 0.00 0.00 0.00 64 1009.2
20260509031526 17 255 1.6 6.4 0.00 0.00 0.00 64 1009.1
20260509031031 17 305 0.0 6.4 0.00 0.00 0.00 63 1009.1
20260509030541 17 273 1.6 6.4 0.00 0.00 0.00 63 1009.0
20260509030016 17 5 1.6 6.4 0.00 0.00 0.00 63 1009.0
20260509025511 17 42 1.6 6.4 0.00 0.00 0.00 64 1009.0
20260509025017 17 338 0.0 4.8 0.00 0.00 0.00 65 1008.9
20260509024541 17 346 0.0 3.2 0.00 0.00 0.00 63 1008.9
20260509024056 17 348 0.0 3.2 0.00 0.00 0.00 63 1008.9
20260509023601 17 355 0.0 4.8 0.00 0.00 0.00 63 1008.9
20260509023051 17 355 1.6 4.8 0.00 0.00 0.00 64 1008.9
20260509022545 17 320 1.6 4.8 0.00 0.00 0.00 64 1008.8
20260509022058 18 24 0.0 1.6 0.00 0.00 0.00 63 1008.7
20260509021532 18 24 0.0 1.6 0.00 0.00 0.00 63 1008.7
20260509021037 18 24 0.0 0.0 0.00 0.00 0.00 64 1008.8
20260509020549 18 24 0.0 0.0 0.00 0.00 0.00 64 1008.8
20260509020011 18 24 0.0 1.6 0.00 0.00 0.00 63 1008.8
20260509015526 18 24 0.0 3.2 0.00 0.00 0.00 65 1008.8
20260509015036 18 24 1.6 3.2 0.00 0.00 0.00 63 1008.8
20260509014514 18 30 0.0 1.6 0.00 0.00 0.00 62 1008.8
20260509014020 18 30 0.0 1.6 0.00 0.00 0.00 63 1008.8
20260509013517 18 30 0.0 3.2 0.00 0.00 0.00 63 1008.7
20260509013103 18 30 0.0 3.2 0.00 0.00 0.00 61 1008.8
20260509012547 18 30 0.0 4.8 0.00 0.00 0.00 58 1008.8
20260509012054 17 30 1.6 4.8 0.00 0.00 0.00 61 1008.9
20260509011530 17 30 0.0 1.6 0.00 0.00 0.00 64 1009.0
20260509011035 17 30 0.0 0.0 0.00 0.00 0.00 64 1009.0
20260509010543 17 29 0.0 0.0 0.00 0.00 0.00 65 1009.1
20260509010019 17 27 0.0 1.6 0.00 0.00 0.00 63 1009.1
20260509005525 17 27 0.0 1.6 0.00 0.00 0.00 65 1009.1
20260509005033 17 28 0.0 1.6 0.00 0.00 0.00 63 1009.0
20260509004506 17 28 0.0 0.0 0.00 0.00 0.00 64 1009.0
20260509004013 17 28 0.0 0.0 0.00 0.00 0.00 63 1009.0
20260509003521 18 31 0.0 1.6 0.00 0.00 0.00 63 1009.0
20260509003102 18 36 0.0 1.6 0.00 0.00 0.00 61 1009.0
20260509002503 18 45 0.0 0.0 0.00 0.00 0.00 60 1009.0
20260509002009 18 44 0.0 0.0 0.00 0.00 0.00 58 1009.1
20260509001549 18 44 0.0 3.2 0.00 0.00 0.00 60 1009.1
20260509001056 18 44 0.0 3.2 0.00 0.00 0.00 60 1009.1
20260509000503 18 44 0.0 3.2 0.00 0.00 0.00 57 1009.1
20260509000037 18 44 0.0 4.8 0.00 0.00 0.00 57 1009.2
20260508235546 18 44 0.0 4.8 0.00 0.00 0.00 56 1009.1
20260508235051 18 44 3.2 6.4 0.00 0.00 0.00 56 1009.1
20260508234511 18 338 3.2 6.4 0.00 0.00 0.00 58 1009.2
20260508234059 18 271 1.6 6.4 0.00 0.00 0.00 54 1009.3
20260508233547 18 52 0.0 9.7 0.00 0.00 0.00 55 1009.3
20260508233007 18 57 4.8 9.7 0.00 0.00 0.00 57 1009.3
20260508232557 18 69 1.6 4.8 0.00 0.00 0.00 56 1009.3
20260508232045 18 181 0.0 8.0 0.00 0.00 0.00 54 1009.3
20260508231506 19 250 4.8 9.7 0.00 0.00 0.00 53 1009.3
20260508231056 18 335 4.8 8.0 0.00 0.00 0.00 53 1009.2
20260508230546 18 301 3.2 12.9 0.00 0.00 0.00 54 1009.3
20260508230103 18 265 8.0 19.3 0.00 0.00 0.00 53 1009.4
20260508225549 19 259 4.8 19.3 0.00 0.00 0.00 52 1009.3
20260508225037 18 103 1.6 9.7 0.00 0.00 0.00 52 1009.3
20260508224609 18 260 4.8 9.7 0.00 0.00 0.00 53 1009.4
20260508224043 18 131 4.8 12.9 0.00 0.00 0.00 54 1009.3
20260508223535 18 311 6.4 12.9 0.00 0.00 0.00 53 1009.4
20260508223047 18 32 0.0 8.0 0.00 0.00 0.00 55 1009.4
20260508222533 18 286 3.2 8.0 0.00 0.00 0.00 53 1009.4
20260508222016 18 53 3.2 12.9 0.00 0.00 0.00 56 1009.5
20260508221536 18 271 6.4 12.9 0.00 0.00 0.00 54 1009.4
20260508221022 18 315 4.8 12.9 0.00 0.00 0.00 53 1009.4
20260508220505 18 242 1.6 12.9 0.00 0.00 0.00 53 1009.5
20260508220031 18 309 3.2 14.5 0.00 0.00 0.00 54 1009.5